GFSFLT2_con_3kmhel_108.txt.gz
Helicity
84 77 82 76 75 80 81 80 77 57 52 57 62 58 79 86 99 82 85 71 70 112 126 84 109 110 60 11 -15 58 101 109
77 86 94 83 77 73 85 90 89 70 60 52 46 77 89 106 92 88 115 110 88 104 160 172 159 156 142 59 24 59 65 43
87 79 93 93 86 83 78 86 99 89 90 81 82 83 89 102 98 93 109 146 114 142 199 187 224 156 151 59 78 59 91 141
108 79 96 96 98 118 84 85 98 104 106 126 98 97 106 103 94 115 124 145 104 173 198 211 241 179 137 127 107 67 135 187
123 91 116 111 129 114 85 99 85 108 105 126 119 110 79 63 110 127 137 134 146 204 253 267 232 218 212 191 74 89 112 164
111 126 154 144 95 140 66 95 101 111 104 135 123 110 110 69 105 108 120 156 169 215 267 269 206 181 189 154 -67 86 140 143
161 151 155 159 91 183 124 104 146 123 164 137 136 112 120 103 96 127 116 142 169 243 248 241 181 208 98 48 58 62 136 142
287 190 196 184 151 201 152 118 166 124 140 144 129 126 115 87 129 143 148 168 179 213 243 196 176 209 133 36 32 60 149 144
331 314 278 227 195 211 230 184 158 147 100 115 140 132 134 99 122 138 179 203 206 166 175 184 184 185 101 65 25 95 100 108
359 387 305 267 196 208 188 151 162 134 129 116 130 135 125 148 130 136 124 173 172 173 186 165 159 140 104 80 25 74 132 99
358 343 296 234 201 176 185 158 231 174 101 120 122 124 100 158 143 116 112 137 162 174 175 166 179 157 156 50 13 90 102 107
289 366 297 264 177 165 181 204 221 228 180 138 142 105 98 125 157 135 105 152 172 167 155 151 159 184 134 92 96 123 118 96
182 314 316 376 213 203 219 257 278 295 215 160 165 133 105 113 149 158 185 175 173 153 133 143 179 165 138 187 210 204 221 181
142 222 300 343 240 214 202 266 317 263 232 193 167 141 137 146 210 226 211 179 151 132 95 165 193 227 269 229 331 345 268 270
156 179 203 290 250 238 206 357 311 190 180 151 132 175 207 185 243 231 195 159 146 123 106 188 287 314 266 379 418 356 325 234
189 232 263 307 273 175 146 333 352 275 261 179 164 154 197 195 274 236 203 175 128 94 132 213 258 163 266 389 467 482 340 225
116 198 249 326 333 206 128 263 259 216 220 183 172 169 183 225 272 273 217 182 130 99 66 103 172 291 458 492 398 344 311 253
71 116 223 250 386 188 158 204 241 243 214 242 175 194 215 193 253 254 218 161 162 112 116 101 151 201 245 250 247 257 290 145
91 63 125 249 360 281 180 184 259 254 200 196 213 183 209 229 242 251 233 158 164 164 106 88 93 87 192 156 169 105 92 81
181 44 76 236 292 336 221 202 277 212 194 240 183 171 188 190 235 225 210 176 167 141 132 104 120 88 54 98 55 36 16 48

GFSFLT2_con_3kmhel_111.txt.gz
Helicity
101 78 61 81 78 77 70 66 70 62 52 49 49 43 44 52 41 40 63 64 86 79 83 75 80 52 24 32 108 92 100 60
120 110 79 87 76 87 80 75 74 67 63 59 56 52 53 58 50 50 73 55 100 91 97 102 111 82 73 55 152 100 88 69
120 123 96 104 96 89 97 80 89 72 76 90 73 64 70 69 72 69 83 74 110 143 131 116 130 87 85 52 162 131 72 80
134 130 120 114 122 116 106 96 90 92 84 93 95 89 97 88 94 90 99 104 135 158 139 142 149 123 109 99 143 112 102 100
143 129 116 125 153 143 124 105 95 95 100 101 112 114 116 118 107 121 123 124 165 181 181 181 162 157 132 119 132 145 162 143
181 146 109 134 164 168 123 121 99 110 104 123 124 138 141 133 139 136 139 156 185 190 191 193 183 156 140 124 159 156 219 175
208 182 162 170 154 157 137 121 105 90 108 122 128 132 144 147 139 125 130 153 189 207 235 228 191 158 136 119 121 133 202 146
308 234 231 242 172 171 147 165 148 131 142 159 163 141 146 153 150 128 110 132 158 223 252 234 191 170 164 133 103 103 128 129
388 316 325 260 189 207 200 193 215 202 195 183 164 151 141 145 153 163 168 162 189 255 263 227 196 173 146 121 138 106 105 123
420 387 374 310 246 267 267 240 261 205 169 197 177 166 158 170 182 175 202 208 206 235 239 182 170 159 141 140 115 122 82 110
368 478 438 364 322 350 341 265 233 224 176 159 172 175 179 185 185 203 237 208 200 192 183 164 141 143 126 106 83 67 60 109
286 512 464 422 406 361 322 284 259 245 191 148 174 153 165 201 201 204 222 235 205 178 184 183 157 146 125 116 134 129 89 126
205 344 448 523 465 362 320 315 292 263 210 145 154 153 141 182 217 196 226 243 204 160 194 168 178 161 160 177 163 134 89 124
120 238 423 415 423 339 332 376 354 302 250 163 170 163 146 166 234 223 256 289 240 206 183 165 131 118 158 211 240 169 89 110
125 208 335 412 317 382 415 407 345 373 324 258 222 175 181 177 243 264 286 288 256 201 177 143 121 105 161 225 401 321 250 222
89 284 281 320 343 329 319 407 377 338 380 343 250 204 206 243 294 295 272 280 248 171 166 130 130 98 214 390 415 421 405 364
332 214 223 300 322 299 320 370 317 358 328 265 223 205 240 317 325 318 265 258 224 177 143 116 96 214 264 287 361 361 361 363
274 298 260 251 326 273 314 352 335 334 276 248 244 226 220 294 325 324 274 254 230 174 128 122 120 144 188 280 381 433 392 339
202 225 292 359 318 328 346 353 341 313 299 275 275 268 233 259 332 323 276 242 224 178 129 116 126 151 248 317 316 397 456 305
227 285 294 290 182 317 327 363 382 325 273 280 265 230 207 220 288 291 264 243 240 172 151 106 108 127 143 149 209 191 122 188

GFSFLT2_con_3kmhel_114.txt.gz
Helicity
84 70 73 82 91 92 86 88 78 65 57 55 56 60 46 49 51 57 46 51 74 68 67 50 41 35 62 74 79 99 70 59
135 103 80 69 71 94 88 93 89 67 82 62 56 57 56 52 64 73 65 64 85 64 68 47 37 52 94 47 77 95 85 74
166 143 107 87 88 70 76 93 92 83 78 83 67 47 54 54 67 86 78 88 82 72 70 70 53 78 104 94 95 131 119 106
165 149 143 127 107 89 76 86 91 98 96 95 90 62 53 65 79 97 93 111 96 87 86 98 95 109 141 128 128 59 88 78
153 146 152 160 139 110 103 99 104 107 116 117 102 90 73 88 117 130 124 142 142 124 120 119 108 106 115 122 133 131 104 102
198 177 163 155 161 142 124 125 121 126 114 120 136 115 110 108 138 148 146 162 173 141 115 115 104 97 100 130 138 165 138 108
217 233 227 204 176 159 147 129 130 128 126 120 143 138 125 137 126 148 150 163 172 150 133 125 126 110 102 131 144 146 166 155
245 202 190 221 219 192 170 138 135 128 124 111 130 134 138 151 152 136 139 148 166 173 163 159 142 133 120 126 138 137 146 206
292 262 233 208 205 205 200 176 166 147 126 118 123 136 151 160 182 158 135 140 165 189 188 192 178 154 114 133 151 124 159 220
276 282 274 271 248 217 198 209 199 181 171 145 141 140 167 179 193 184 172 179 177 196 202 192 166 145 125 132 140 140 165 197
256 307 301 286 283 271 246 257 260 221 211 190 171 148 152 175 186 187 215 237 238 236 217 199 189 142 116 120 123 128 184 212
199 278 296 347 351 356 345 296 256 244 244 227 200 165 172 182 197 219 246 249 268 249 227 195 182 168 122 117 100 117 206 166
220 252 238 386 471 395 348 282 303 292 272 252 217 194 185 202 202 228 269 278 262 246 231 202 203 162 168 132 135 160 158 -13
194 192 254 378 487 427 390 378 315 279 291 237 217 191 188 203 209 222 254 261 263 264 271 246 219 225 189 185 174 182 191 139
83 154 263 306 389 503 512 491 361 288 218 215 225 195 178 190 198 226 249 259 227 214 246 250 234 216 170 204 220 248 329 192
389 253 158 216 390 498 522 458 408 300 289 289 293 209 185 194 206 215 245 259 252 225 233 230 257 205 161 131 219 274 272 295
425 445 327 197 208 345 523 409 343 371 337 369 337 267 202 203 212 237 250 282 264 285 252 225 209 190 167 178 167 221 212 371
366 342 315 394 248 137 192 277 344 393 340 351 389 271 249 224 222 251 258 269 284 278 225 205 196 175 131 142 258 415 334 331
226 298 363 378 323 221 148 200 297 354 363 318 380 333 286 265 284 280 291 263 281 269 225 196 177 145 151 165 295 295 469 546
180 193 248 324 303 200 153 192 376 343 338 358 357 311 279 296 305 274 275 265 269 260 233 192 161 141 156 171 239 337 389 460

GFSFLT2_con_3kmhel_117.txt.gz
Helicity
74 46 25 55 73 79 82 91 100 107 96 98 92 82 73 63 68 77 75 66 76 65 51 52 28 61 82 75 58 55 50 60
96 63 51 73 65 67 66 70 96 96 97 92 98 90 79 61 66 68 80 76 86 77 61 50 43 65 81 70 74 70 48 55
98 95 85 101 85 61 67 57 72 85 95 100 110 102 95 80 64 67 82 87 88 90 65 54 80 67 90 82 75 72 74 80
106 117 131 133 112 90 75 67 65 59 82 107 115 117 108 113 78 74 83 91 96 101 85 96 104 77 79 97 83 88 95 108
130 140 160 162 132 120 108 93 80 49 67 114 120 137 129 133 127 92 96 100 109 118 134 130 108 97 89 93 95 84 88 71
153 168 187 182 183 140 137 129 109 80 59 98 140 152 147 140 150 132 130 117 135 137 126 119 112 97 89 97 97 104 88 76
175 220 207 225 226 184 172 153 146 113 95 90 129 147 152 151 148 152 152 152 137 120 103 118 129 113 102 96 96 103 94 115
225 193 223 227 206 198 176 176 180 175 137 112 122 139 157 155 164 156 152 170 152 117 97 116 126 137 122 111 101 91 94 103
201 209 225 224 211 220 208 189 206 196 176 149 132 131 155 169 169 168 146 161 149 122 106 112 139 160 149 136 131 100 93 104
198 216 210 196 213 232 232 210 217 194 203 179 148 134 142 169 172 171 166 173 164 148 142 133 135 160 172 150 135 110 96 108
210 267 263 231 217 222 203 200 217 206 214 199 171 152 146 166 172 173 192 186 171 181 172 161 167 162 138 147 145 124 110 106
195 272 236 280 311 276 277 257 193 220 220 216 202 174 172 170 181 199 216 202 194 205 198 194 183 166 144 143 129 117 127 116
218 229 209 331 359 368 320 296 251 215 214 219 219 189 184 189 178 195 208 213 227 232 222 219 211 200 178 145 144 131 121 103
209 230 206 289 323 334 369 313 312 298 304 235 210 222 210 220 212 194 205 220 234 244 253 243 232 241 221 217 169 180 117 151
296 124 137 220 233 307 452 428 401 349 239 221 189 250 235 226 235 217 213 217 227 252 238 232 240 242 210 230 245 220 229 163
420 438 306 174 201 244 297 349 404 273 298 302 292 309 284 241 258 258 220 214 206 237 238 206 228 248 226 219 262 247 179 155
452 472 432 399 352 240 249 243 219 186 295 290 341 273 262 257 275 281 247 229 190 204 199 199 243 264 268 245 184 186 172 285
514 483 458 381 346 343 217 240 265 271 278 213 282 282 294 260 294 270 254 248 255 234 217 227 240 265 252 242 224 212 173 207
504 463 383 355 338 300 265 186 231 258 256 86 174 262 299 294 311 265 248 256 267 264 251 251 250 232 234 197 164 148 135 181
459 409 394 367 317 275 256 201 199 207 226 230 283 284 310 379 331 252 227 251 252 242 261 268 240 218 209 167 121 113 193 302

GFSFLT2_con_3kmhel_120.txt.gz
Helicity
90 75 66 64 63 69 102 107 102 104 116 133 144 141 136 124 111 88 81 87 88 87 75 51 56 62 60 73 44 37 41 40
91 80 78 56 33 41 76 89 83 84 85 109 129 129 130 125 116 99 84 85 93 96 79 70 74 62 54 62 69 42 37 46
98 95 48 38 23 28 68 76 77 75 69 83 117 117 120 120 108 107 94 85 96 101 87 83 84 56 55 73 71 30 36 46
124 96 75 50 30 48 74 67 70 77 74 84 95 106 120 119 115 109 100 100 92 104 93 98 95 75 58 79 62 50 45 43
113 133 106 75 77 76 91 77 71 89 95 103 96 107 120 134 136 136 126 127 127 124 133 107 86 86 72 73 70 59 51 46
162 136 132 107 119 119 109 106 88 76 101 128 124 115 121 130 149 152 156 145 160 152 123 90 88 85 83 89 94 70 59 45
119 140 142 154 168 170 130 108 119 80 107 134 136 134 119 119 134 162 171 170 160 163 129 101 89 74 78 91 97 98 75 69
140 141 149 232 219 186 171 143 124 112 118 122 142 155 140 116 136 153 174 181 166 152 124 108 90 87 74 78 81 85 95 89
132 150 181 212 203 215 226 194 181 168 148 145 142 158 165 142 135 143 160 183 185 156 135 134 117 112 89 99 99 113 95 105
150 187 168 167 193 241 227 222 215 206 206 180 167 155 177 183 151 128 163 181 180 170 161 159 139 123 106 101 107 123 114 92
197 213 195 180 173 225 233 201 202 192 206 186 170 167 180 192 166 147 168 171 174 175 165 165 162 139 111 108 115 114 118 119
208 232 212 218 239 230 214 231 182 191 186 192 195 188 182 193 183 176 173 159 164 178 173 170 158 139 134 121 121 114 118 99
165 144 196 287 280 271 228 202 234 195 171 175 222 217 201 193 183 184 181 158 166 154 184 191 184 183 171 130 117 100 104 113
184 135 160 215 250 260 297 264 228 212 223 189 225 239 223 219 205 192 178 169 175 172 216 207 192 230 181 200 150 130 124 126
282 237 173 202 232 292 371 346 317 308 245 223 192 190 226 259 260 227 200 178 195 199 209 215 218 180 207 206 167 188 176 159
269 288 251 245 225 320 310 301 268 231 249 228 193 180 260 294 284 263 241 211 227 234 215 210 227 216 179 190 235 240 206 134
309 341 327 376 454 328 256 228 231 224 218 193 214 212 250 234 256 275 225 215 209 257 252 227 205 234 223 236 232 276 256 250
515 463 431 459 451 427 336 180 213 223 201 211 215 263 262 231 251 277 284 277 253 224 224 233 215 212 217 276 294 240 249 219
575 539 526 450 380 362 333 268 203 149 199 237 259 244 262 167 149 250 303 314 272 258 208 199 190 202 221 261 266 239 247 171
575 459 437 423 376 309 277 218 154 156 123 228 252 244 208 360 123 179 271 343 305 254 237 209 234 234 245 256 244 214 198 168

GFSFLT2_con_3kmhel_123.txt.gz
Helicity
106 90 83 112 129 125 113 108 114 119 122 121 117 120 135 123 111 96 79 95 69 64 68 70 64 62 58 52 51 47 43 28
99 84 67 72 70 93 85 82 95 106 107 107 110 109 110 113 111 102 88 91 73 67 75 75 65 73 60 54 51 40 28 33
62 77 69 80 64 43 58 52 67 93 96 96 103 92 95 101 93 103 101 89 90 77 77 77 79 67 48 53 57 22 20 24
70 72 78 82 55 42 29 25 33 61 71 87 86 85 96 94 80 96 100 103 95 89 92 103 89 68 44 43 37 35 17 27
77 79 84 92 69 46 46 34 31 44 59 82 79 91 96 104 96 91 99 114 118 116 120 96 78 76 58 39 41 53 42 41
64 49 80 100 109 69 67 59 32 49 55 79 95 100 110 118 117 106 103 116 128 137 113 93 90 84 64 55 45 49 55 53
67 80 76 114 119 131 87 109 77 32 60 71 94 102 123 129 121 121 113 113 129 138 122 106 95 100 86 60 54 47 45 57
54 58 79 97 113 154 146 111 120 82 55 75 84 94 121 135 135 128 123 117 117 119 114 108 89 92 98 83 57 62 55 60
54 76 91 85 110 133 177 118 119 129 103 87 109 105 101 118 130 134 129 133 124 132 119 113 107 111 111 114 59 62 65 66
52 93 117 82 119 132 162 155 130 150 167 139 125 123 129 135 126 118 133 161 173 168 142 134 113 116 112 105 91 75 63 72
35 75 103 119 127 172 140 121 132 157 193 162 144 150 159 156 139 114 127 154 170 160 149 138 133 121 108 104 95 85 73 81
71 101 109 123 148 185 143 111 78 85 123 135 149 167 180 157 146 148 134 151 166 166 151 152 125 113 115 99 97 101 91 87
22 39 40 129 167 168 145 145 135 95 69 92 126 138 169 154 160 158 153 150 168 177 184 163 141 148 148 143 119 107 108 95
177 115 27 80 145 150 186 149 151 139 114 94 114 147 196 172 189 194 179 190 164 181 197 209 173 215 185 172 127 105 141 125
260 231 215 114 69 138 186 141 126 130 124 121 143 121 135 169 163 181 222 218 202 182 193 168 195 188 152 148 170 154 146 118
310 225 209 205 142 103 131 181 166 170 180 194 180 133 137 144 206 192 182 221 198 189 194 165 177 187 168 122 162 185 162 127
350 267 273 280 264 233 147 125 144 140 181 180 195 177 176 180 215 229 221 201 181 213 188 184 193 188 178 182 131 167 178 168
393 352 338 334 321 320 313 163 108 120 124 146 148 179 223 236 228 238 214 188 188 227 174 157 192 206 193 193 224 208 231 219
374 409 371 322 352 374 314 301 239 191 94 125 158 187 229 232 269 269 264 231 244 254 227 187 214 209 214 202 163 152 171 197
542 567 541 460 461 452 400 321 136 171 154 147 123 158 156 141 196 176 190 325 311 212 262 235 237 218 176 191 173 155 178 259

GFSFLT2_con_3kmhel_129.txt.gz
Helicity
11 39 72 102 106 110 108 97 89 99 111 108 104 95 91 81 65 55 44 33 48 44 54 44 38 33 43 34 16 -17 9 65
32 29 68 79 83 95 92 81 87 90 87 91 89 80 69 67 54 46 48 46 46 40 35 47 40 32 34 37 20 -8 23 65
42 31 64 79 87 99 98 73 71 79 82 82 74 46 54 57 36 74 45 50 50 51 48 41 58 39 33 35 10 -7 45 42
39 43 40 69 71 92 88 78 61 51 48 60 40 29 46 39 44 60 53 56 64 59 57 64 37 44 42 25 -0 3 15 48
31 52 52 57 60 73 76 68 57 48 52 54 40 29 59 28 50 55 36 53 52 67 70 48 41 -2 100 30 14 44 9 111
48 47 43 70 73 85 70 64 63 50 46 51 48 29 57 47 45 41 42 60 33 61 60 47 41 50 44 25 27 16 -2 115
75 64 69 72 85 97 87 64 66 48 50 67 45 27 36 54 41 36 62 51 30 77 35 72 71 57 43 34 59 34 52 62
69 44 94 75 80 101 110 81 80 69 67 56 59 36 48 59 47 54 67 54 56 56 39 98 64 69 73 60 51 68 63 64
98 78 45 104 97 93 126 96 91 54 39 36 66 36 46 50 59 49 31 89 55 65 24 74 55 101 81 92 69 76 75 93
148 78 56 66 121 108 96 118 140 100 62 49 46 29 28 78 53 74 68 61 82 75 86 91 51 107 78 82 79 67 97 68
144 97 108 79 76 106 121 135 149 115 93 66 46 67 52 78 103 67 109 59 90 92 90 98 80 80 101 63 75 86 85 107
158 214 226 68 84 101 121 166 151 144 129 83 72 68 85 102 93 105 102 89 128 143 152 116 85 65 65 98 97 86 89 101
333 251 294 344 121 133 131 170 204 148 147 94 119 88 110 142 146 127 137 145 165 151 167 132 121 97 114 78 72 92 83 100
188 135 224 267 81 112 128 168 180 169 133 149 153 138 130 144 176 124 145 164 174 173 178 176 123 150 159 151 99 56 89 94
152 163 169 150 420 107 129 165 158 143 129 154 120 124 128 148 156 142 175 160 142 188 186 172 165 184 160 143 115 99 56 93
81 182 145 213 271 111 160 156 188 174 166 137 128 116 107 81 85 114 130 127 116 182 211 207 193 200 161 119 85 114 133 82
66 132 154 155 185 365 265 139 208 204 200 166 159 132 103 96 71 59 87 116 140 188 223 216 232 204 202 130 126 112 100 98
72 137 151 140 117 323 332 162 190 344 411 218 307 262 199 140 109 96 81 108 167 155 204 215 207 134 185 109 119 158 131 120
151 159 233 238 170 290 508 345 306 298 448 -35 187 60 130 113 97 117 154 156 172 155 172 192 174 212 182 228 199 166 251 75
255 219 288 315 289 251 439 589 339 268 301 132 37 149 208 143 117 135 152 190 192 186 216 196 191 228 172 240 206 180 220 156

GFSFLT2_con_3kmhel_132.txt.gz
Helicity
-8 -12 91 93 78 80 85 77 82 93 105 97 89 79 63 58 52 45 34 41 51 47 47 43 35 32 30 10 -14 -8 -1 15
8 8 77 83 83 97 88 78 79 82 103 96 92 77 55 47 50 38 38 38 41 43 48 46 41 38 26 18 -4 -17 5 55
41 9 52 95 86 98 105 96 94 99 100 95 86 70 60 55 33 53 39 40 41 41 47 50 57 38 29 19 0 -18 21 65
43 17 29 79 91 118 123 105 110 110 107 95 78 56 66 45 41 55 59 47 38 43 46 53 46 42 27 17 -4 -7 7 107
84 54 36 65 61 139 151 144 135 119 103 105 74 51 55 32 66 77 70 72 51 46 57 38 26 -4 67 28 10 33 9 114
26 126 51 109 79 107 138 133 153 144 124 114 101 70 61 74 96 85 91 84 40 57 48 31 11 18 70 18 26 37 35 90
98 44 96 86 114 93 142 103 130 137 129 118 115 90 76 95 88 87 68 77 42 73 37 33 7 45 80 52 46 47 69 96
211 127 39 135 84 114 119 190 138 129 138 123 115 103 73 86 69 83 73 79 56 57 37 83 48 56 39 33 53 56 54 75
120 173 123 96 109 89 123 131 193 158 179 158 139 120 64 82 91 80 77 62 81 59 60 63 75 89 72 52 44 40 85 93
109 78 132 37 103 173 104 165 166 180 224 209 188 104 82 76 111 87 74 44 90 92 66 82 76 79 114 96 75 48 54 66
361 142 185 216 152 98 174 126 196 181 179 166 170 169 119 104 90 79 84 59 83 100 90 98 109 99 114 110 89 74 62 93
354 359 143 169 138 200 81 159 165 173 214 172 158 191 135 130 121 148 118 88 87 111 102 89 110 92 105 118 122 116 107 104
272 199 299 223 206 333 293 122 144 127 219 194 189 198 158 129 180 167 132 113 102 129 154 142 157 128 94 123 107 115 123 123
198 214 65 89 33 131 307 220 114 194 180 220 222 226 159 134 212 161 167 121 135 195 171 141 111 110 137 144 125 124 129 144
48 159 112 -4 -53 -49 45 186 119 152 154 226 267 235 203 162 175 287 217 175 138 195 204 176 182 144 124 206 174 137 99 108
125 52 162 57 73 -96 -30 92 256 136 214 241 261 253 288 215 196 227 230 217 164 173 213 190 203 182 196 139 116 173 168 165
118 126 130 81 82 100 -181 -85 128 105 171 209 181 255 266 290 248 201 196 266 177 148 176 211 205 186 227 230 127 67 113 175
97 186 109 62 61 129 -50 -84 16 92 170 192 234 247 211 232 226 140 117 167 136 94 178 198 207 185 209 184 208 252 156 223
131 199 144 88 167 147 141 -56 -94 134 147 161 794 552 450 406 258 196 121 108 100 144 182 195 194 222 156 197 188 214 228 173
230 235 226 178 176 267 272 146 52 113 264 706 176 361 293 305 262 222 99 114 111 157 184 206 207 209 186 145 178 184 214 230

GFSFLT2_con_3kmhel_135.txt.gz
Helicity
27 10 39 63 73 78 81 82 79 80 83 89 88 79 71 60 55 46 45 47 42 38 34 34 30 27 8 8 24 32 38 38
15 72 38 78 84 79 81 83 77 73 87 94 100 91 78 69 58 44 47 49 41 38 36 28 24 22 15 -5 10 30 40 60
73 80 71 69 86 88 89 90 87 88 92 102 120 113 92 77 67 55 46 50 49 34 32 33 27 13 17 4 4 29 44 52
104 97 97 30 114 106 106 112 122 119 123 130 126 122 104 87 76 62 61 50 48 48 40 23 37 13 7 9 7 9 42 43
87 179 127 76 30 146 153 156 147 135 129 148 144 127 107 99 93 87 92 75 63 52 50 28 16 8 12 22 27 36 34 53
53 81 137 98 87 129 160 182 185 174 150 151 155 143 127 109 124 132 130 111 88 65 52 26 13 -2 20 29 25 52 54 38
227 205 131 163 160 80 175 191 215 205 205 177 174 156 138 130 139 144 133 125 92 68 44 44 21 16 20 32 28 25 71 85
260 243 268 248 243 153 111 204 197 207 206 211 196 166 156 156 174 153 137 131 94 82 55 32 19 23 23 39 16 44 84 84
132 153 212 389 341 211 159 111 223 211 198 158 207 186 158 177 184 181 140 135 96 80 51 40 35 21 48 59 42 44 86 88
58 40 50 95 304 380 201 92 41 153 198 198 187 198 165 196 177 161 157 133 108 77 77 49 57 61 49 59 40 54 67 87
15 33 -17 -16 14 227 311 245 136 92 179 254 246 211 191 190 190 164 178 150 136 96 104 103 77 64 56 55 69 64 43 93
7 65 73 -67 -171 -24 137 180 166 202 131 189 236 256 213 172 196 184 173 168 131 141 128 113 116 80 74 79 73 93 86 68
73 -2 118 45 -158 -214 -50 100 148 183 232 69 119 168 294 243 236 213 194 180 181 170 171 121 130 134 123 64 53 54 54 71
143 136 82 156 -4 -82 -148 -109 41 81 151 217 152 68 240 269 236 247 273 221 226 209 189 220 179 191 192 183 122 93 83 84
116 124 86 201 215 -10 -121 -125 -88 -31 18 69 99 97 288 242 215 272 310 295 282 211 206 224 202 203 209 225 175 139 137 129
53 25 51 37 141 95 1 -91 -65 -36 -9 26 90 87 157 268 260 266 301 308 272 285 246 199 214 159 220 186 207 178 165 162
56 47 102 149 139 117 75 21 -34 -26 -2 28 70 86 98 256 274 278 339 269 249 244 280 230 241 223 195 232 138 130 146 176
57 38 94 120 175 144 117 73 -9 45 89 -40 -56 42 106 145 342 298 355 287 273 265 240 212 238 210 178 190 184 189 121 174
35 115 115 105 181 126 116 115 70 -8 124 -59 131 156 185 210 383 542 325 255 207 234 240 182 200 191 186 201 179 171 208 179
85 117 191 177 184 222 151 128 130 116 113 162 278 102 257 61 -21 504 420 433 175 168 196 203 182 185 155 180 191 185 202 245